When you browse on this site, cookies collect data to enhance your experience and personalize the content and advertising you see.
Visit our Privacy Policy to learn more. By continuing to use the site, you agree to this use of cookies and data.
  • In Latvia
  • List of Countries
  • For 7 days
  • Water Temperature
  • Weather Map
  • Weather Widgets
  • user-avatar
    Login

    Hourly Weather Fier

    Today, 6 June, Saturday

    Time Temperature Precipitation Wind Pressure Humidity
    00:00 +21°C° 0 mm 2 mps 751 mmHg 60%
    01:00 +21°C° 0 mm 2 mps 750 mmHg 59%
    02:00 +20°C° 0 mm 2 mps 750 mmHg 60%
    03:00 +20°C° 0 mm 2 mps 750 mmHg 62%
    04:00 +20°C° 0 mm 2 mps 750 mmHg 63%
    05:00 +20°C° 0.4 mm 2 mps 751 mmHg 66%
    06:00 +21°C° 0.4 mm 2 mps 751 mmHg 69%
    07:00 +21°C° 0.4 mm 2 mps 752 mmHg 72%
    08:00 +21°C° 0.5 mm 3 mps 752 mmHg 70%
    09:00 +21°C° 0.5 mm 4 mps 753 mmHg 68%
    10:00 +22°C° 0.5 mm 4 mps 753 mmHg 66%
    11:00 +22°C° 0.2 mm 4 mps 753 mmHg 63%
    12:00 +24°C° 0.2 mm 3 mps 754 mmHg 60%
    13:00 +24°C° 0.2 mm 3 mps 754 mmHg 57%
    14:00 +24°C° 0.1 mm 3 mps 754 mmHg 59%
    15:00 +23°C° 0.1 mm 4 mps 754 mmHg 61%
    16:00 +23°C° 0.1 mm 4 mps 754 mmHg 63%
    17:00 +22°C° 0.1 mm 3 mps 754 mmHg 70%
    18:00 +20°C° 0.1 mm 3 mps 754 mmHg 76%
    19:00 +19°C° 0.1 mm 2 mps 754 mmHg 82%
    20:00 +19°C° 0 mm 2 mps 755 mmHg 84%
    21:00 +18°C° 0 mm 2 mps 755 mmHg 86%
    22:00 +17°C° 0 mm 2 mps 756 mmHg 89%
    23:00 +18°C° 0 mm 1 mps 756 mmHg 89%

    Tomorrow, 7 June, Sunday

    Time Temperature Precipitation Wind Pressure Humidity
    00:00 +18°C° 0 mm 1 mps 756 mmHg 89%
    01:00 +18°C° 0 mm 1 mps 756 mmHg 89%
    02:00 +18°C° 0 mm 1 mps 756 mmHg 89%
    03:00 +16°C° 0 mm 1 mps 756 mmHg 89%
    04:00 +16°C° 0 mm 2 mps 756 mmHg 89%
    05:00 +18°C° 0 mm 2 mps 756 mmHg 82%
    06:00 +19°C° 0 mm 2 mps 756 mmHg 75%
    07:00 +21°C° 0 mm 2 mps 756 mmHg 68%
    08:00 +23°C° 0 mm 1 mps 756 mmHg 62%
    09:00 +25°C° 0 mm 1 mps 756 mmHg 57%
    10:00 +26°C° 0 mm 1 mps 757 mmHg 51%
    11:00 +27°C° 0 mm 2 mps 756 mmHg 51%
    12:00 +27°C° 0 mm 3 mps 756 mmHg 52%
    13:00 +27°C° 0 mm 4 mps 756 mmHg 53%
    14:00 +27°C° 0 mm 4 mps 756 mmHg 55%
    15:00 +26°C° 0 mm 4 mps 756 mmHg 56%
    16:00 +26°C° 0 mm 4 mps 756 mmHg 58%
    17:00 +25°C° 0 mm 3 mps 756 mmHg 65%
    18:00 +22°C° 0 mm 3 mps 756 mmHg 71%
    19:00 +21°C° 0 mm 2 mps 757 mmHg 78%
    20:00 +20°C° 0 mm 2 mps 757 mmHg 80%
    21:00 +20°C° 0 mm 2 mps 757 mmHg 81%
    22:00 +19°C° 0 mm 2 mps 757 mmHg 83%
    23:00 +19°C° 0 mm 2 mps 757 mmHg 82%

    Day after tomorrow, 8 June, Monday

    Time Temperature Precipitation Wind Pressure Humidity
    00:00 +19°C° 0 mm 2 mps 757 mmHg 81%
    01:00 +19°C° 0 mm 2 mps 756 mmHg 80%
    02:00 +20°C° 0 mm 1 mps 756 mmHg 80%
    03:00 +20°C° 0 mm 1 mps 756 mmHg 79%
    04:00 +19°C° 0 mm 1 mps 756 mmHg 78%
    05:00 +21°C° 0 mm 1 mps 756 mmHg 73%
    06:00 +22°C° 0 mm 1 mps 756 mmHg 69%
    07:00 +24°C° 0 mm 2 mps 757 mmHg 64%
    08:00 +25°C° 0 mm 2 mps 757 mmHg 61%
    09:00 +26°C° 0 mm 2 mps 757 mmHg 58%
    10:00 +27°C° 0 mm 2 mps 757 mmHg 54%
    11:00 +28°C° 0 mm 3 mps 756 mmHg 51%
    12:00 +29°C° 0 mm 4 mps 756 mmHg 48%
    13:00 +30°C° 0 mm 4 mps 756 mmHg 46%
    14:00 +29°C° 0 mm 5 mps 756 mmHg 48%
    15:00 +28°C° 0 mm 5 mps 756 mmHg 51%
    16:00 +27°C° 0 mm 5 mps 756 mmHg 54%
    17:00 +26°C° 0 mm 4 mps 756 mmHg 59%
    18:00 +25°C° 0 mm 3 mps 756 mmHg 65%
    19:00 +22°C° 0 mm 3 mps 756 mmHg 70%
    20:00 +23°C° 0 mm 2 mps 756 mmHg 71%
    21:00 +21°C° 0 mm 2 mps 757 mmHg 73%
    22:00 +21°C° 0 mm 2 mps 757 mmHg 74%
    23:00 +20°C° 0 mm 2 mps 757 mmHg 74%

    9 June, Tuesday

    Time Temperature Precipitation Wind Pressure Humidity
    00:00 +20°C° 0 mm 2 mps 757 mmHg 74%
    01:00 +20°C° 0 mm 2 mps 757 mmHg 74%
    02:00 +20°C° 0 mm 2 mps 756 mmHg 74%
    03:00 +21°C° 0 mm 1 mps 756 mmHg 74%
    04:00 +20°C° 0 mm 1 mps 756 mmHg 74%
    05:00 +22°C° 0 mm 1 mps 756 mmHg 69%
    06:00 +24°C° 0 mm 1 mps 757 mmHg 64%
    07:00 +25°C° 0 mm 1 mps 757 mmHg 59%
    08:00 +27°C° 0 mm 1 mps 757 mmHg 55%
    09:00 +28°C° 0 mm 1 mps 757 mmHg 50%
    10:00 +29°C° 0 mm 2 mps 757 mmHg 46%
    11:00 +30°C° 0 mm 2 mps 756 mmHg 46%
    12:00 +30°C° 0 mm 3 mps 756 mmHg 46%
    13:00 +30°C° 0 mm 3 mps 756 mmHg 46%
    14:00 +30°C° 0 mm 3 mps 756 mmHg 48%
    15:00 +29°C° 0 mm 4 mps 755 mmHg 51%
    16:00 +28°C° 0 mm 4 mps 755 mmHg 53%
    17:00 +27°C° 0.3 mm 3 mps 755 mmHg 60%
    18:00 +25°C° 0.3 mm 2 mps 756 mmHg 68%
    19:00 +23°C° 0.3 mm 1 mps 756 mmHg 75%
    20:00 +22°C° 0 mm 1 mps 756 mmHg 76%
    21:00 +21°C° 0 mm 2 mps 756 mmHg 77%
    22:00 +20°C° 0 mm 2 mps 757 mmHg 77%
    23:00 +20°C° 0 mm 2 mps 756 mmHg 76%

    10 June, Wednesday

    Time Temperature Precipitation Wind Pressure Humidity
    00:00 +20°C° 0 mm 2 mps 756 mmHg 75%
    01:00 +20°C° 0 mm 2 mps 756 mmHg 74%
    02:00 +21°C° 0 mm 1 mps 756 mmHg 74%
    03:00 +21°C° 0 mm 1 mps 756 mmHg 74%
    04:00 +21°C° 0 mm 1 mps 756 mmHg 74%
    05:00 +22°C° 0 mm 1 mps 756 mmHg 70%
    06:00 +23°C° 0 mm 1 mps 756 mmHg 65%
    07:00 +23°C° 0 mm 0 mps 756 mmHg 61%
    08:00 +26°C° 0 mm 1 mps 756 mmHg 56%
    09:00 +27°C° 0 mm 1 mps 757 mmHg 51%
    10:00 +28°C° 0 mm 2 mps 757 mmHg 46%
    11:00 +29°C° 0 mm 3 mps 756 mmHg 46%
    12:00 +29°C° 0 mm 4 mps 756 mmHg 46%
    13:00 +29°C° 0 mm 4 mps 756 mmHg 46%
    14:00 +28°C° 0 mm 4 mps 756 mmHg 48%
    15:00 +28°C° 0 mm 4 mps 756 mmHg 50%
    16:00 +27°C° 0 mm 4 mps 756 mmHg 53%
    17:00 +26°C° 0 mm 3 mps 756 mmHg 57%
    18:00 +24°C° 0 mm 2 mps 756 mmHg 61%
    19:00 +23°C° 0 mm 1 mps 757 mmHg 65%
    20:00 +22°C° 0 mm 1 mps 757 mmHg 66%
    21:00 +22°C° 0 mm 1 mps 757 mmHg 67%
    22:00 +19°C° 0 mm 0 mps 758 mmHg 68%
    23:00 +21°C° 0 mm 1 mps 757 mmHg 68%

    11 June, Thursday

    Time Temperature Precipitation Wind Pressure Humidity
    00:00 +21°C° 0 mm 1 mps 757 mmHg 68%
    01:00 +20°C° 0 mm 1 mps 757 mmHg 68%
    02:00 +20°C° 0 mm 1 mps 757 mmHg 70%
    03:00 +20°C° 0 mm 1 mps 757 mmHg 71%
    04:00 +19°C° 0 mm 1 mps 756 mmHg 73%
    05:00 +21°C° 0 mm 1 mps 756 mmHg 68%
    06:00 +22°C° 0 mm 1 mps 756 mmHg 63%
    07:00 +24°C° 0 mm 1 mps 757 mmHg 59%
    08:00 +25°C° 0 mm 2 mps 757 mmHg 56%
    09:00 +26°C° 0 mm 2 mps 757 mmHg 54%
    10:00 +27°C° 0 mm 3 mps 757 mmHg 51%
    11:00 +27°C° 0 mm 4 mps 756 mmHg 51%
    12:00 +27°C° 0 mm 4 mps 756 mmHg 50%
    13:00 +28°C° 0 mm 5 mps 756 mmHg 49%
    14:00 +27°C° 0 mm 4 mps 756 mmHg 48%
    15:00 +27°C° 0 mm 4 mps 755 mmHg 48%
    16:00 +27°C° 0 mm 3 mps 755 mmHg 48%
    17:00 +25°C° 0 mm 2 mps 755 mmHg 52%
    18:00 +24°C° 0 mm 2 mps 755 mmHg 57%
    19:00 +22°C° 0 mm 1 mps 755 mmHg 62%
    20:00 +22°C° 0 mm 1 mps 755 mmHg 62%
    21:00 +21°C° 0 mm 1 mps 756 mmHg 63%
    22:00 +21°C° 0 mm 1 mps 756 mmHg 63%
    23:00 +20°C° 0 mm 1 mps 755 mmHg 64%
    Show more